Weather History for Nome, AK

Change the Weather History Date:

Monday, December 19, 2011

  Actual Average Record
Temperature  
Mean Temperature 25 °F -  
Max Temperature 29 °F 16 °F 38 °F (1969)
Min Temperature 20 °F - -36 °F (1918)
Degree Days  
Heating Degree Days 40 56  
Month to date heating degree days 904 1033  
Since 1 July heating degree days 5374 5131  
Cooling Degree Days 0    
Month to date cooling degree days 0  
Year to date cooling degree days 0  
Moisture  
Dew Point 26 °F    
Average Humidity 0    
Maximum Humidity 0    
Minimum Humidity 0    
Precipitation  
Precipitation 0.07 in 0.04 in 0.44 in (1921)
Month to date precipitation 2.16 0.66  
Year to date precipitation 18.44 16.39  
Snow  
Snow 0.90 in 0.60 in 6.30 in (2010)
Month to date snowfall 27.4 8.7  
Since 1 July snowfall 43.9 26.0  
Snow Depth 26.00 in    
Sea Level Pressure  
Sea Level Pressure 28.99 in    
Wind  
Wind Speed 13 mph (ESE)    
Max Wind Speed 21 mph    
Max Gust Speed 28 mph    
Visibility 5 miles    
Events Fog , Rain , Snow    
T = Trace of Precipitation, MM = Missing Value Source: NWS Daily Summary

Daily Weather History Graph

Daily Weather History Graph

Search for Another Location

Airport:

Trip Planner

Search our weather history database for the weather conditions in past years. The results will help you decide how hot, cold, wet, or windy it might be!

Date:

Astronomy

Dec. 19, 2011 Rise Set
Actual Time 12:01 PM AKST 3:56 PM AKST
Civil Twilight 10:39 AM AKST 5:18 PM AKST
Nautical Twilight 9:28 AM AKST 6:29 PM AKST
Astronomical Twilight 8:27 AM AKST 7:30 PM AKST
Moon 4:46 AM AKST (12/19) 1:33 PM AKST (12/19)
Length of Visible Light 6h 39m
Length of Day
3h 54m
Waning Crescent, 30% of the Moon is Illuminated
Dec 19
Waning Crescent
Dec 24
New
Dec 31
First Quarter
Jan 8
Full
Jan 16
Last Quarter

Hourly Weather History & Observations

Time (AKST) Temp. Windchill Dew Point Humidity Pressure Visibility Wind Dir Wind Speed Gust Speed Precip Events Conditions
12:53 AM 26.1 °F 14.5 °F 24.1 °F 92% 28.80 in 4.0 mi ENE 13.8 mph - N/A   Overcast
1:43 AM 26.6 °F 14.3 °F 24.8 °F 93% 28.79 in 10.0 mi ENE 16.1 mph - 0.00 in   Overcast
1:53 AM 26.1 °F 12.7 °F 24.1 °F 92% 28.80 in 10.0 mi ENE 18.4 mph - 0.00 in   Overcast
2:35 AM 26.6 °F 13.4 °F 24.8 °F 93% 28.81 in 2.5 mi ENE 18.4 mph - 0.00 in Rain Light Freezing Rain
3:22 AM 26.6 °F 14.3 °F 24.8 °F 93% 28.82 in 2.0 mi East 16.1 mph - 0.00 in Rain Light Freezing Rain
3:53 AM 27.0 °F 15.2 °F 26.1 °F 96% 28.82 in 2.5 mi East 15.0 mph - 0.00 in Rain Light Freezing Rain
4:14 AM 26.6 °F 14.7 °F 26.6 °F 100% 28.82 in 1.8 mi East 15.0 mph - 0.00 in Snow Light Snow
4:51 AM 26.6 °F 14.7 °F 26.6 °F 100% 28.83 in 1.2 mi East 15.0 mph - 0.00 in Snow Light Snow
4:53 AM 27.0 °F 14.7 °F 26.1 °F 96% 28.84 in 1.2 mi East 16.1 mph - 0.00 in Snow Light Snow
5:02 AM 26.6 °F 14.7 °F 26.6 °F 100% 28.84 in 2.0 mi East 15.0 mph - 0.01 in Snow Light Snow
5:20 AM 26.6 °F 15.7 °F 26.6 °F 100% 28.84 in 5.0 mi East 12.7 mph - 0.01 in Snow Light Snow
5:40 AM 26.6 °F 14.7 °F 26.6 °F 100% 28.85 in 1.8 mi East 15.0 mph - 0.01 in Snow Light Snow
5:51 AM 26.6 °F 16.2 °F 26.6 °F 100% 28.85 in 1.2 mi East 11.5 mph - 0.02 in Snow Light Snow
5:53 AM 27.0 °F 16.1 °F 26.1 °F 96% 28.85 in 1.5 mi East 12.7 mph - 0.02 in Snow Light Snow
6:34 AM 28.4 °F 19.1 °F 26.6 °F 93% 28.86 in 3.0 mi East 10.4 mph - 0.01 in Snow Light Snow
6:53 AM 28.0 °F 18.6 °F 28.0 °F 100% 28.87 in 9.0 mi ESE 10.4 mph - 0.01 in   Overcast
7:07 AM 28.4 °F 19.7 °F 28.4 °F 100% 28.87 in 1.8 mi ESE 9.2 mph - N/A   Overcast
7:20 AM 28.4 °F 19.1 °F 28.4 °F 100% 28.87 in 2.0 mi East 10.4 mph - N/A   Overcast
7:48 AM 28.4 °F 19.1 °F 28.4 °F 100% 28.88 in 2.0 mi East 10.4 mph - 0.00 in Snow Light Snow
7:53 AM 28.9 °F 18.2 °F 28.0 °F 96% 28.88 in 1.5 mi East 13.8 mph - 0.00 in Snow Light Snow
8:10 AM 28.4 °F 18.0 °F 28.4 °F 100% 28.89 in 2.0 mi ESE 12.7 mph - 0.00 in   Overcast
8:51 AM 28.4 °F 17.5 °F 28.4 °F 100% 28.90 in 4.0 mi ESE 13.8 mph - 0.00 in Snow Light Snow
8:53 AM 28.0 °F 17.5 °F 28.0 °F 100% 28.91 in 5.0 mi ESE 12.7 mph - 0.00 in Snow Light Snow
9:13 AM 28.4 °F 18.0 °F 28.4 °F 100% 28.91 in 10.0 mi ESE 12.7 mph - 0.00 in   Overcast
9:53 AM 28.4 °F 18.5 °F 28.4 °F 100% 28.92 in 6.0 mi ESE 11.5 mph - N/A   Overcast
10:06 AM 28.4 °F 18.0 °F 28.4 °F 100% 28.93 in 5.0 mi ESE 12.7 mph - N/A   Overcast
10:29 AM 28.4 °F 18.0 °F 28.4 °F 100% 28.94 in 3.0 mi ESE 12.7 mph - 0.00 in Snow Light Snow
10:53 AM 28.9 °F 19.2 °F 28.9 °F 100% 28.95 in 3.0 mi ESE 11.5 mph - 0.00 in Snow Light Snow
11:53 AM 28.9 °F 19.2 °F 28.9 °F 100% 28.98 in 3.0 mi SSE 11.5 mph - 0.00 in   Overcast
12:53 PM 28.9 °F 19.8 °F 28.0 °F 96% 29.02 in 10.0 mi South 10.4 mph - 0.01 in   Overcast
1:18 PM 28.4 °F 19.7 °F 28.4 °F 100% 29.03 in 2.5 mi South 9.2 mph - 0.00 in Snow Light Snow
1:27 PM 28.4 °F 19.7 °F 28.4 °F 100% 29.03 in 0.8 mi SSE 9.2 mph - 0.00 in Snow Light Snow
1:36 PM 28.4 °F 19.7 °F 28.4 °F 100% 29.04 in 0.8 mi South 9.2 mph - 0.00 in Snow Light Snow
1:53 PM 28.0 °F 19.3 °F 28.0 °F 100% 29.05 in 0.8 mi SSE 9.2 mph - 0.01 in Snow Light Snow
2:01 PM 28.4 °F 19.7 °F 28.4 °F 100% 29.05 in 0.5 mi SSE 9.2 mph - 0.00 in Fog , Snow Snow
2:33 PM 28.4 °F 18.5 °F 28.4 °F 100% 29.07 in 0.5 mi South 11.5 mph - 0.02 in Fog , Snow Light Snow
2:53 PM 28.9 °F 17.3 °F 28.0 °F 96% 29.08 in 0.5 mi South 16.1 mph - 0.02 in Fog , Snow Light Snow
2:58 PM 28.4 °F 16.2 °F 28.4 °F 100% 29.07 in 1.0 mi South 17.3 mph - 0.00 in Snow Light Snow
3:07 PM 28.4 °F 16.6 °F 28.4 °F 100% 29.08 in 1.0 mi South 16.1 mph - 0.00 in Snow Light Snow
3:32 PM 28.4 °F 16.6 °F 26.6 °F 93% 29.09 in 8.0 mi South 16.1 mph - 0.00 in   Overcast
3:53 PM 28.9 °F 17.7 °F 26.1 °F 89% 29.11 in 8.0 mi South 15.0 mph - 0.00 in   Overcast
4:53 PM 27.0 °F 15.6 °F 25.0 °F 92% 29.15 in 8.0 mi SSE 13.8 mph - N/A   Overcast
5:22 PM 24.8 °F 14.0 °F 24.8 °F 100% 29.16 in 10.0 mi SE 11.5 mph - N/A   Overcast
5:53 PM 24.1 °F 12.5 °F 23.0 °F 96% 29.18 in 10.0 mi SE 12.7 mph - N/A   Overcast
6:53 PM 21.9 °F 11.0 °F 21.0 °F 96% 29.21 in 10.0 mi ESE 10.4 mph - N/A   Overcast
7:53 PM 21.0 °F 9.3 °F 19.0 °F 92% 29.23 in 10.0 mi East 11.5 mph - N/A   Overcast
8:53 PM 21.0 °F 8.1 °F 19.0 °F 92% 29.24 in 10.0 mi East 13.8 mph - N/A   Overcast
9:38 PM 21.2 °F 8.3 °F 21.2 °F 100% 29.25 in 7.0 mi East 13.8 mph - 0.00 in Snow Light Snow
9:53 PM 21.9 °F 8.7 °F 21.0 °F 96% 29.26 in 10.0 mi East 15.0 mph - 0.00 in   Overcast
10:53 PM 24.1 °F 12.0 °F 21.9 °F 91% 29.29 in 10.0 mi East 13.8 mph - N/A   Overcast
11:00 PM 24.8 °F 13.4 °F 23.0 °F 93% 29.29 in 10.0 mi East 12.7 mph - N/A   Overcast
11:53 PM 26.1 °F 15.0 °F 24.1 °F 92% 29.30 in 10.0 mi SE 12.7 mph - 0.00 in   Overcast